EW4907 Weather Reports


Display with metric or nautical units.
time (UTC)temp
F
wind
direction
speed
MPH
gust
MPH
rain 1hr
in
rain 24hr
in
rain mn
in
humidity
%
barometer
mb
20260906011515 90 131 5.0 11.0 0.00 0.00 0.00 49 1010.6
20260906010017 91 98 8.0 15.0 0.00 0.00 0.00 47 1010.5
20260906004514 93 134 4.0 13.0 0.00 0.00 0.00 43 1010.5
20260906003019 94 125 2.0 7.0 0.00 0.00 0.00 39 1010.3
20260906001514 95 221 2.0 8.0 0.00 0.00 0.00 39 1010.2
20260906000011 95 207 4.0 8.0 0.00 0.00 0.00 38 1010.3
20260905234510 95 141 4.0 11.0 0.00 0.00 0.00 38 1010.3
20260905233014 96 174 2.0 9.0 0.00 0.00 0.00 38 1010.2
20260905231508 95 150 6.0 9.0 0.00 0.00 0.00 38 1010.2
20260905230008 96 127 1.0 10.0 0.00 0.00 0.00 38 1010.3
20260905224513 96 88 3.0 6.0 0.00 0.00 0.00 38 1010.2
20260905223005 95 86 3.0 7.0 0.00 0.00 0.00 38 1010.2
20260905221503 95 86 3.0 10.0 0.00 0.00 0.00 39 1010.4
20260905220002 96 135 3.0 8.0 0.00 0.00 0.00 39 1010.5
20260905214601 96 153 3.0 8.0 0.00 0.00 0.00 38 1010.5
20260905213105 96 139 2.0 10.0 0.00 0.00 0.00 39 1010.6
20260905211609 97 136 2.0 11.0 0.00 0.00 0.00 39 1010.5
20260905210109 96 191 4.0 9.0 0.00 0.00 0.00 39 1010.7
20260905204553 96 179 5.0 10.0 0.00 0.00 0.00 40 1011.0
20260905203050 96 169 6.0 12.0 0.00 0.00 0.00 40 1011.3
20260905201547 95 229 4.0 11.0 0.00 0.00 0.00 41 1011.5
20260905200049 94 297 1.0 6.0 0.00 0.00 0.00 43 1011.8
20260905194544 93 149 3.0 11.0 0.00 0.00 0.00 42 1012.2
20260905193039 92 251 0.0 6.0 0.00 0.00 0.00 44 1012.3
20260905191541 94 140 7.0 12.0 0.00 0.00 0.00 42 1012.6
20260905190046 93 98 2.0 14.0 0.00 0.00 0.00 45 1012.8
20260905184540 92 274 3.0 14.0 0.00 0.00 0.00 47 1013.1
20260905183032 93 173 2.0 10.0 0.00 0.00 0.00 45 1013.3
20260905181531 92 118 5.0 12.0 0.00 0.00 0.00 44 1013.6
20260905180030 91 99 3.0 12.0 0.00 0.00 0.00 48 1013.9
20260905174529 92 146 6.0 13.0 0.00 0.00 0.00 48 1014.1
20260905173027 90 235 4.0 11.0 0.00 0.00 0.00 52 1014.4
20260905171537 91 238 2.0 7.0 0.00 0.00 0.00 56 1014.5
20260905170022 89 239 5.0 11.0 0.00 0.00 0.00 55 1014.6
20260905164522 89 155 6.0 11.0 0.00 0.00 0.00 56 1014.7
20260905163020 89 174 5.0 13.0 0.00 0.00 0.00 57 1014.8
20260905161517 87 200 5.0 11.0 0.00 0.00 0.00 62 1014.8
20260905160118 87 178 3.0 8.0 0.00 0.00 0.00 65 1014.7
20260905154514 86 212 3.0 8.0 0.00 0.00 0.00 65 1014.8
20260905153011 85 184 3.0 10.0 0.00 0.00 0.00 70 1014.6
20260905151511 83 212 2.0 8.0 0.00 0.00 0.00 77 1014.7
20260905150004 82 217 3.0 8.0 0.00 0.00 0.00 78 1014.8
20260905144504 81 198 2.0 9.0 0.00 0.00 0.00 82 1014.6
20260905143100 80 212 5.0 9.0 0.00 0.00 0.00 83 1014.6
20260905141607 80 158 5.0 9.0 0.00 0.00 0.00 85 1014.7
20260905140103 78 203 4.0 6.0 0.00 0.00 0.00 91 1014.5
20260905134554 77 146 3.0 6.0 0.00 0.00 0.00 93 1014.3
20260905133052 76 210 1.0 7.0 0.00 0.00 0.00 94 1014.3
20260905131606 75 142 0.0 3.0 0.00 0.00 0.00 94 1014.1
20260905130048 75 168 1.0 4.0 0.00 0.00 0.00 94 1013.9
20260905124547 75 173 1.0 3.0 0.00 0.00 0.00 94 1013.7
20260905123046 74 162 0.0 2.0 0.00 0.00 0.00 94 1013.6
20260905121546 74 181 0.0 2.0 0.00 0.00 0.00 94 1013.6
20260905120046 74 188 0.0 2.0 0.00 0.00 0.00 93 1013.5
20260905114550 74 214 1.0 4.0 0.00 0.00 0.00 93 1013.3
20260905113044 74 191 1.0 3.0 0.00 0.00 0.00 93 1013.2
20260905111545 74 170 1.0 3.0 0.00 0.00 0.00 93 1013.1
20260905110042 74 176 1.0 2.0 0.00 0.00 0.00 93 1013.1
20260905104549 74 148 1.0 2.0 0.00 0.00 0.00 92 1013.1
20260905103040 74 213 0.0 2.0 0.00 0.00 0.00 92 1013.0
20260905101540 75 170 1.0 2.0 0.00 0.00 0.00 92 1012.9
20260905100038 75 212 1.0 3.0 0.00 0.00 0.00 92 1012.9
20260905094538 75 202 1.0 4.0 0.00 0.00 0.00 92 1012.8
20260905093040 75 229 2.0 6.0 0.00 0.00 0.00 91 1012.6
20260905091537 75 198 3.0 6.0 0.00 0.00 0.00 91 1012.9
20260905090044 75 208 3.0 6.0 0.00 0.00 0.00 91 1012.8
20260905084534 75 190 3.0 6.0 0.00 0.00 0.00 90 1012.9
20260905083040 76 173 4.0 7.0 0.00 0.00 0.00 89 1013.0
20260905081529 76 150 3.0 7.0 0.00 0.00 0.00 89 1013.1
20260905080033 76 188 4.0 8.0 0.00 0.00 0.00 88 1013.2
20260905074525 76 180 3.0 8.0 0.00 0.00 0.00 88 1013.3
20260905073026 76 127 3.0 6.0 0.00 0.00 0.00 87 1013.4
20260905071525 77 166 3.0 9.0 0.00 0.00 0.00 86 1013.4
20260905070019 77 152 3.0 8.0 0.00 0.00 0.00 86 1013.4
20260905064516 77 169 3.0 7.0 0.00 0.00 0.00 85 1013.5
20260905063014 77 136 4.0 7.0 0.00 0.00 0.00 84 1013.7
20260905061515 78 162 4.0 9.0 0.00 0.00 0.00 83 1013.7
20260905060012 78 155 4.0 8.0 0.00 0.00 0.00 83 1013.5
20260905054608 78 180 4.0 8.0 0.00 0.00 0.00 82 1013.7
20260905053006 78 129 3.0 8.0 0.00 0.00 0.00 81 1013.6
20260905051508 78 138 4.0 8.0 0.00 0.00 0.00 80 1013.7
20260905050000 79 129 2.0 7.0 0.00 0.00 0.00 79 1013.9
20260905044602 79 206 3.0 7.0 0.00 0.00 0.00 78 1013.8
20260905043058 79 148 4.0 9.0 0.00 0.00 0.00 77 1013.8
20260905041557 79 210 3.0 9.0 0.00 0.00 0.00 77 1013.7
20260905034556 80 159 2.0 7.0 0.00 0.00 0.00 74 1013.7
20260905033059 80 142 4.0 6.0 0.00 0.00 0.00 72 1013.6
20260905031601 80 120 4.0 8.0 0.00 0.00 0.00 71 1013.6
20260905030051 81 114 3.0 6.0 0.00 0.00 0.00 70 1013.5
20260905024551 81 105 4.0 7.0 0.00 0.00 0.00 69 1013.3
20260905023049 81 141 3.0 6.0 0.00 0.00 0.00 69 1013.0
20260905021550 81 112 3.0 6.0 0.00 0.00 0.00 68 1012.9
20260905020048 82 134 1.0 6.0 0.00 0.00 0.00 67 1012.8
20260905014548 82 134 3.0 8.0 0.00 0.00 0.00 66 1012.8
20260905013048 83 112 3.0 8.0 0.00 0.00 0.00 65 1012.7